Location: Unspecified
(34.4950°S, 58.5160°W)
Time: 02:52:56
(UTC+00:00)

Cosmos 2360 - Pass Details

Date: 04 December 2021
Orbit: 844 x 857 km, 70.8° (Epoch: 23 January)

Event Time Altitude Azimuth Distance (km) Brightness Sun altitude
Rises 23:13:41 0° 348° (NNW) 3,406 7.2 -4.2°
Reaches altitude 10° 23:16:08 10° 351° (N) 2,476 6.4 -4.6°
Maximum altitude 23:21:46 66° 72° (ENE) 929 4.2 -5.6°
Drops below altitude 10° 23:27:27 10° 153° (SSE) 2,497 6.7 -6.6°
Sets 23:29:56 0° 155° (SSE) 3,438 7.5 -7.0°
